CW3742 Weather Reports


time (UTC)temp
F
wind
direction
speed
knots
gust
knots
rain 1hr
in
rain 24hr
in
rain mn
in
humidity
%
barometer
mb
20260904070016 79 158 3.5 6.1 0.00 0.00 0.00 82 993.4
20260904063016 79 158 3.5 6.1 0.00 0.00 0.00 82 993.6
20260904060056 79 135 3.5 6.1 0.00 0.00 0.00 82 993.7
20260904053056 80 135 3.5 5.2 0.00 0.00 0.00 81 993.9
20260904050016 80 135 3.5 5.2 0.00 0.00 0.00 81 993.7
20260904043018 80 135 3.5 4.3 0.00 0.00 0.00 82 993.5
20260904040018 81 158 3.5 6.1 0.00 0.00 0.00 81 993.5
20260904033018 82 158 3.5 6.1 0.00 0.00 0.00 80 993.4
20260904030018 83 158 2.6 6.1 0.00 0.00 0.00 79 993.4
20260904023018 83 180 3.5 6.1 0.00 0.00 0.00 78 992.9
20260904020038 85 180 3.5 7.8 0.00 0.00 0.00 77 992.7
20260904013018 85 180 3.5 6.1 0.00 0.00 0.00 76 992.6
20260904010018 86 158 2.6 5.2 0.00 0.00 0.00 74 992.4
20260904003016 88 158 3.5 6.1 0.00 0.00 0.00 72 992.3
20260904000016 89 158 3.5 7.8 0.00 0.00 0.00 70 992.3
20260903233016 91 158 4.3 7.8 0.00 0.00 0.00 68 992.4
20260903230017 93 158 3.5 7.0 0.00 0.00 0.00 65 992.7
20260903223016 94 158 4.3 8.7 0.00 0.00 0.00 62 992.8
20260903220036 95 180 4.3 9.6 0.00 0.00 0.00 61 993.1
20260903213016 95 225 5.2 7.8 0.00 0.00 0.00 59 993.4
20260903210016 96 203 4.3 7.8 0.00 0.00 0.00 57 993.4
20260903203016 96 225 2.6 7.8 0.00 0.00 0.00 58 993.6
20260903200016 95 203 2.6 6.1 0.00 0.00 0.00 59 993.7
20260903193017 94 158 4.3 9.6 0.00 0.00 0.00 60 994.0
20260903190016 94 203 4.3 8.7 0.00 0.00 0.00 59 994.0
20260903183016 94 225 3.5 7.8 0.00 0.00 0.00 61 994.2
20260903180016 92 225 2.6 7.8 0.00 0.00 0.00 62 994.4
20260903173016 92 225 2.6 7.0 0.00 0.00 0.00 64 994.5
20260903170018 90 225 4.3 9.6 0.00 0.00 0.00 64 994.8
20260903163016 89 225 3.5 8.7 0.00 0.00 0.00 67 995.0
20260903160016 87 225 5.2 10.4 0.00 0.00 0.00 68 995.1
20260903153016 86 225 6.1 11.3 0.00 0.00 0.00 70 995.0
20260903150016 85 225 7.0 12.2 0.00 0.00 0.00 71 994.9
20260903143016 84 225 6.1 10.4 0.00 0.00 0.00 71 994.6
20260903140016 83 225 6.1 12.2 0.00 0.00 0.00 72 994.6
20260903133017 82 203 6.1 10.4 0.00 0.00 0.00 75 994.6
20260903130056 79 203 4.3 8.7 0.00 0.00 0.00 80 994.6
20260903123016 78 180 3.5 6.1 0.00 0.00 0.00 81 994.6
20260903120016 76 158 4.3 7.0 0.00 0.00 0.00 84 994.2
20260903113016 76 158 4.3 6.1 0.00 0.00 0.00 85 994.0
20260903110036 76 158 4.3 7.0 0.00 0.00 0.00 85 993.9
20260903103016 76 158 4.3 7.8 0.00 0.00 0.00 84 993.8
20260903100018 77 158 4.3 6.1 0.00 0.00 0.00 84 993.8
20260903093038 77 180 3.5 6.1 0.00 0.00 0.00 82 993.7
20260903090016 78 180 3.5 6.1 0.00 0.00 0.00 82 993.9
20260903083018 78 180 3.5 6.1 0.00 0.00 0.00 82 993.8
20260903080016 79 180 3.5 6.1 0.00 0.00 0.00 81 993.7
20260903073016 79 180 3.5 6.1 0.00 0.00 0.00 81 993.8